sat.trackr.live / text

‹ back to catalog

STARLINK-5738

NORAD 55573 · 2023-020E

PAYLOAD ACTIVE UNKNOWN

§ Identity

Operator
Country
US
Launch date
2023-02-12
Launch site
AFETR
Launch vehicle
Mass (kg)
RCS (m²)

Purposes: comms

External: N2YO · Heavens-Above · Gunter

§ Orbital elements

Epoch: 2026-09-20T12:56:52.973664Z

Period
94.27 min
Inclination
43.0047°
Eccentricity
0.0001208
Mean motion
15.27577080 rev/d
Perigee alt
482.2 km
Apogee alt
483.9 km
Semi-major
6,861.2 km
B*
2.9252e-6
RAAN
348.1157°
Arg perigee
268.2209°
Mean anomaly
91.8505°
Rev number
19,867

§ Raw data

STARLINK-57381 55573U 23020E   26263.53950201 -.00000182  00000+0  29252-5 0  99922 55573  43.0047 348.1157 0001208 268.2209  91.8505 15.27577080198675

JSON: /api/v1/satellites/55573 · /tle

For live sub-satellite position, see the globe view (requires WebGL).

§ Visibility from observer

Set your observer location to see the next 7 days of passes ≥ 10°. The values pass through the URL so the page stays shareable.

No JS? Fill the form by hand. The geolocation button needs JavaScript.